Time,TemperatureF,DewpointF,PressureIn,WindDirection,WindDirectionDegrees,WindSpeedMPH,WindSpeedGustMPH,Humidity,HourlyPrecipIn,Conditions,Clouds,dailyrainin,SoftwareType,DateUTC
2013-07-07 00:00:00,65.0,42.0,26.78,SSE,157,4.0,4.0,43,0.00,,,0.00,Rainwise IP-100,2013-07-07 06:00:00,
2013-07-07 00:05:00,65.0,42.0,26.78,SE,135,2.0,5.0,44,0.00,,,0.00,Rainwise IP-100,2013-07-07 06:05:00,
2013-07-07 00:10:00,65.0,42.0,26.78,SSE,157,2.0,5.0,44,0.00,,,0.00,Rainwise IP-100,2013-07-07 06:10:00,
2013-07-07 00:15:00,65.0,42.0,26.78,SSW,202,2.0,6.0,44,0.00,,,0.00,Rainwise IP-100,2013-07-07 06:15:00,
2013-07-07 00:20:00,65.0,43.0,26.78,East,90,1.0,4.0,45,0.00,,,0.00,Rainwise IP-100,2013-07-07 06:20:00,
2013-07-07 00:25:00,64.0,42.0,26.78,East,90,1.0,4.0,45,0.00,,,0.00,Rainwise IP-100,2013-07-07 06:25:00,
2013-07-07 00:30:00,64.0,42.0,26.78,ENE,67,2.0,4.0,45,0.00,,,0.00,Rainwise IP-100,2013-07-07 06:30:00,
2013-07-07 00:35:00,64.0,43.0,26.78,ESE,112,2.0,6.0,47,0.00,,,0.00,Rainwise IP-100,2013-07-07 06:35:00,
2013-07-07 00:40:00,64.0,43.0,26.78,ESE,112,2.0,6.0,47,0.00,,,0.00,Rainwise IP-100,2013-07-07 06:40:00,
2013-07-07 00:45:00,64.0,43.0,26.78,SE,135,2.0,6.0,47,0.00,,,0.00,Rainwise IP-100,2013-07-07 06:45:00,
2013-07-07 00:50:00,64.0,43.0,26.78,ESE,112,4.0,6.0,47,0.00,,,0.00,Rainwise IP-100,2013-07-07 06:50:00,
2013-07-07 00:55:00,64.0,43.0,26.78,ENE,67,2.0,7.0,46,0.00,,,0.00,Rainwise IP-100,2013-07-07 06:55:00,
2013-07-07 01:00:00,64.0,43.0,26.78,ESE,112,0.0,4.0,46,0.00,,,0.00,Rainwise IP-100,2013-07-07 07:00:00,
2013-07-07 01:05:00,63.0,42.0,26.79,SSW,202,2.0,2.0,47,0.00,,,0.00,Rainwise IP-100,2013-07-07 07:05:00,
2013-07-07 01:10:00,63.0,43.0,26.79,SW,225,0.0,4.0,48,0.00,,,0.00,Rainwise IP-100,2013-07-07 07:10:00,
2013-07-07 01:15:00,62.0,43.0,26.79,East,90,2.0,3.0,50,0.00,,,0.00,Rainwise IP-100,2013-07-07 07:15:00,
2013-07-07 01:20:00,62.0,43.0,26.79,ESE,112,1.0,4.0,50,0.00,,,0.00,Rainwise IP-100,2013-07-07 07:20:00,
2013-07-07 01:25:00,62.0,42.0,26.80,SSE,157,4.0,4.0,49,0.00,,,0.00,Rainwise IP-100,2013-07-07 07:25:00,
2013-07-07 01:30:00,62.0,42.0,26.80,ENE,67,3.0,4.0,49,0.00,,,0.00,Rainwise IP-100,2013-07-07 07:30:00,
2013-07-07 01:31:00,62.0,42.0,26.80,ENE,67,0.0,3.0,49,0.00,,,0.00,Rainwise IP-100,2013-07-07 07:31:00,
2013-07-07 01:36:00,61.0,41.0,26.80,ENE,67,0.0,4.0,49,0.00,,,0.00,Rainwise IP-100,2013-07-07 07:36:00,
2013-07-07 01:41:00,61.0,41.0,26.81,ESE,112,0.0,4.0,49,0.00,,,0.00,Rainwise IP-100,2013-07-07 07:41:00,
2013-07-07 01:46:00,61.0,42.0,26.81,ESE,112,2.0,3.0,50,0.00,,,0.00,Rainwise IP-100,2013-07-07 07:46:00,
2013-07-07 01:51:00,60.0,42.0,26.81,SSE,157,1.0,4.0,51,0.00,,,0.00,Rainwise IP-100,2013-07-07 07:51:00,
2013-07-07 01:56:00,60.0,42.0,26.81,SSE,157,0.0,2.0,52,0.00,,,0.00,Rainwise IP-100,2013-07-07 07:56:00,
2013-07-07 02:01:00,60.0,42.0,26.81,SE,135,1.0,2.0,52,0.00,,,0.00,Rainwise IP-100,2013-07-07 08:01:00,
2013-07-07 02:06:00,60.0,43.0,26.81,ENE,67,0.0,4.0,54,0.00,,,0.00,Rainwise IP-100,2013-07-07 08:06:00,
2013-07-07 02:11:00,60.0,43.0,26.81,ENE,67,0.0,2.0,54,0.00,,,0.00,Rainwise IP-100,2013-07-07 08:11:00,
2013-07-07 02:16:00,59.0,43.0,26.81,ENE,67,0.0,0.0,55,0.00,,,0.00,Rainwise IP-100,2013-07-07 08:16:00,
2013-07-07 02:21:00,59.0,43.0,26.82,ENE,67,0.0,2.0,55,0.00,,,0.00,Rainwise IP-100,2013-07-07 08:21:00,
2013-07-07 02:26:00,59.0,43.0,26.82,ESE,112,3.0,3.0,56,0.00,,,0.00,Rainwise IP-100,2013-07-07 08:26:00,
2013-07-07 02:31:00,60.0,44.0,26.81,SE,135,4.0,4.0,55,0.00,,,0.00,Rainwise IP-100,2013-07-07 08:31:00,
2013-07-07 02:36:00,59.0,43.0,26.81,SE,135,0.0,4.0,55,0.00,,,0.00,Rainwise IP-100,2013-07-07 08:36:00,
2013-07-07 02:41:00,59.0,43.0,26.82,West,270,0.0,3.0,56,0.00,,,0.00,Rainwise IP-100,2013-07-07 08:41:00,
2013-07-07 02:46:00,58.0,43.0,26.82,West,270,0.0,2.0,57,0.00,,,0.00,Rainwise IP-100,2013-07-07 08:46:00,
2013-07-07 02:51:00,58.0,43.0,26.82,West,270,0.0,0.0,58,0.00,,,0.00,Rainwise IP-100,2013-07-07 08:51:00,
2013-07-07 02:56:00,57.0,43.0,26.82,West,270,0.0,0.0,59,0.00,,,0.00,Rainwise IP-100,2013-07-07 08:56:00,
2013-07-07 03:01:00,56.0,42.0,26.83,West,270,0.0,0.0,61,0.00,,,0.00,Rainwise IP-100,2013-07-07 09:01:00,
2013-07-07 03:06:00,56.0,43.0,26.83,West,270,0.0,0.0,63,0.00,,,0.00,Rainwise IP-100,2013-07-07 09:06:00,
2013-07-07 03:11:00,55.0,43.0,26.83,West,270,0.0,0.0,63,0.00,,,0.00,Rainwise IP-100,2013-07-07 09:11:00,
2013-07-07 03:16:00,55.0,43.0,26.83,West,270,0.0,0.0,64,0.00,,,0.00,Rainwise IP-100,2013-07-07 09:16:00,
2013-07-07 03:21:00,56.0,44.0,26.84,West,270,2.0,5.0,64,0.00,,,0.00,Rainwise IP-100,2013-07-07 09:21:00,
2013-07-07 03:26:00,55.0,43.0,26.84,West,270,0.0,4.0,64,0.00,,,0.00,Rainwise IP-100,2013-07-07 09:26:00,
2013-07-07 03:31:00,56.0,44.0,26.83,SSW,202,0.0,3.0,65,0.00,,,0.00,Rainwise IP-100,2013-07-07 09:31:00,
2013-07-07 03:36:00,55.0,44.0,26.83,SSW,202,0.0,2.0,65,0.00,,,0.00,Rainwise IP-100,2013-07-07 09:36:00,
2013-07-07 03:41:00,55.0,43.0,26.84,SSW,202,0.0,0.0,64,0.00,,,0.00,Rainwise IP-100,2013-07-07 09:41:00,
2013-07-07 03:46:00,55.0,44.0,26.84,SSW,202,0.0,0.0,65,0.00,,,0.00,Rainwise IP-100,2013-07-07 09:46:00,
2013-07-07 03:51:00,54.0,43.0,26.84,SSW,202,0.0,0.0,66,0.00,,,0.00,Rainwise IP-100,2013-07-07 09:51:00,
2013-07-07 03:56:00,54.0,43.0,26.85,SSW,202,0.0,0.0,67,0.00,,,0.00,Rainwise IP-100,2013-07-07 09:56:00,
2013-07-07 04:01:00,53.0,41.0,26.86,SSW,202,0.0,0.0,66,0.00,,,0.00,Rainwise IP-100,2013-07-07 10:01:00,
2013-07-07 04:06:00,53.0,43.0,26.86,SSW,202,0.0,0.0,69,0.00,,,0.00,Rainwise IP-100,2013-07-07 10:06:00,
2013-07-07 04:11:00,54.0,44.0,26.85,SSW,202,0.0,0.0,69,0.00,,,0.00,Rainwise IP-100,2013-07-07 10:11:00,
2013-07-07 04:16:00,54.0,44.0,26.85,SSW,202,0.0,0.0,68,0.00,,,0.00,Rainwise IP-100,2013-07-07 10:16:00,
2013-07-07 04:21:00,54.0,44.0,26.85,SSW,202,0.0,0.0,68,0.00,,,0.00,Rainwise IP-100,2013-07-07 10:21:00,
2013-07-07 04:26:00,54.0,43.0,26.85,SSE,157,0.0,3.0,67,0.00,,,0.00,Rainwise IP-100,2013-07-07 10:26:00,
2013-07-07 04:31:00,54.0,43.0,26.85,SSE,157,0.0,0.0,66,0.00,,,0.00,Rainwise IP-100,2013-07-07 10:31:00,
2013-07-07 04:36:00,53.0,42.0,26.85,SSE,157,0.0,0.0,68,0.00,,,0.00,Rainwise IP-100,2013-07-07 10:36:00,
2013-07-07 04:41:00,53.0,42.0,26.86,SSE,157,0.0,0.0,68,0.00,,,0.00,Rainwise IP-100,2013-07-07 10:41:00,
2013-07-07 04:46:00,52.0,42.0,26.86,SSE,157,0.0,0.0,70,0.00,,,0.00,Rainwise IP-100,2013-07-07 10:46:00,
2013-07-07 04:51:00,52.0,42.0,26.87,SSE,157,0.0,0.0,70,0.00,,,0.00,Rainwise IP-100,2013-07-07 10:51:00,
2013-07-07 04:56:00,52.0,43.0,26.87,SSE,157,0.0,0.0,71,0.00,,,0.00,Rainwise IP-100,2013-07-07 10:56:00,
2013-07-07 05:01:00,52.0,43.0,26.87,SSE,157,0.0,0.0,71,0.00,,,0.00,Rainwise IP-100,2013-07-07 11:01:00,
2013-07-07 05:06:00,52.0,43.0,26.87,SSE,157,0.0,0.0,71,0.00,,,0.00,Rainwise IP-100,2013-07-07 11:06:00,
2013-07-07 05:12:00,52.0,43.0,26.87,SSE,157,0.0,0.0,71,0.00,,,0.00,Rainwise IP-100,2013-07-07 11:12:00,
2013-07-07 05:17:00,52.0,43.0,26.87,SSE,157,0.0,0.0,72,0.00,,,0.00,Rainwise IP-100,2013-07-07 11:17:00,
2013-07-07 05:22:00,52.0,43.0,26.87,SSE,157,0.0,0.0,73,0.00,,,0.00,Rainwise IP-100,2013-07-07 11:22:00,
2013-07-07 05:27:00,52.0,43.0,26.87,East,90,1.0,3.0,73,0.00,,,0.00,Rainwise IP-100,2013-07-07 11:27:00,
2013-07-07 05:32:00,52.0,43.0,26.87,SE,135,0.0,2.0,71,0.00,,,0.00,Rainwise IP-100,2013-07-07 11:32:00,
2013-07-07 05:37:00,52.0,43.0,26.87,SE,135,0.0,0.0,72,0.00,,,0.00,Rainwise IP-100,2013-07-07 11:37:00,
2013-07-07 05:42:00,52.0,43.0,26.87,SE,135,0.0,0.0,72,0.00,,,0.00,Rainwise IP-100,2013-07-07 11:42:00,
2013-07-07 05:47:00,51.0,43.0,26.87,SE,135,0.0,0.0,73,0.00,,,0.00,Rainwise IP-100,2013-07-07 11:47:00,
2013-07-07 05:52:00,51.0,43.0,26.88,SE,135,0.0,0.0,74,0.00,,,0.00,Rainwise IP-100,2013-07-07 11:52:00,
2013-07-07 05:57:00,50.0,43.0,26.88,SE,135,0.0,0.0,77,0.00,,,0.00,Rainwise IP-100,2013-07-07 11:57:00,
2013-07-07 06:02:00,50.0,43.0,26.89,SE,135,0.0,0.0,77,0.00,,,0.00,Rainwise IP-100,2013-07-07 12:02:00,
2013-07-07 06:07:00,51.0,44.0,26.89,ESE,112,0.0,2.0,75,0.00,,,0.00,Rainwise IP-100,2013-07-07 12:07:00,
2013-07-07 06:12:00,51.0,43.0,26.88,SE,135,1.0,2.0,74,0.00,,,0.00,Rainwise IP-100,2013-07-07 12:12:00,
2013-07-07 06:17:00,51.0,43.0,26.88,SE,135,0.0,2.0,73,0.00,,,0.00,Rainwise IP-100,2013-07-07 12:17:00,
2013-07-07 06:22:00,52.0,43.0,26.88,WNW,292,4.0,0.0,73,0.00,,,0.00,Rainwise IP-100,2013-07-07 12:22:00,
2013-07-07 06:27:00,52.0,43.0,26.88,WNW,292,0.0,4.0,72,0.00,,,0.00,Rainwise IP-100,2013-07-07 12:27:00,
2013-07-07 06:32:00,52.0,43.0,26.88,WNW,292,0.0,0.0,72,0.00,,,0.00,Rainwise IP-100,2013-07-07 12:32:00,
2013-07-07 06:37:00,52.0,43.0,26.88,WNW,292,0.0,0.0,73,0.00,,,0.00,Rainwise IP-100,2013-07-07 12:37:00,
2013-07-07 06:42:00,53.0,43.0,26.88,WNW,292,0.0,0.0,70,0.00,,,0.00,Rainwise IP-100,2013-07-07 12:42:00,
2013-07-07 06:47:00,54.0,44.0,26.88,WNW,292,0.0,0.0,70,0.00,,,0.00,Rainwise IP-100,2013-07-07 12:47:00,
2013-07-07 06:52:00,55.0,45.0,26.87,WNW,292,1.0,3.0,68,0.00,,,0.00,Rainwise IP-100,2013-07-07 12:52:00,
2013-07-07 06:57:00,55.0,45.0,26.87,West,270,2.0,5.0,68,0.00,,,0.00,Rainwise IP-100,2013-07-07 12:57:00,
2013-07-07 07:02:00,56.0,45.0,26.87,West,270,0.0,2.0,66,0.00,,,0.00,Rainwise IP-100,2013-07-07 13:02:00,
2013-07-07 07:07:00,57.0,44.0,26.87,SE,135,2.0,4.0,61,0.00,,,0.00,Rainwise IP-100,2013-07-07 13:07:00,
2013-07-07 07:12:00,58.0,44.0,26.86,SE,135,0.0,3.0,59,0.00,,,0.00,Rainwise IP-100,2013-07-07 13:12:00,
2013-07-07 07:17:00,59.0,45.0,26.86,SE,135,0.0,0.0,59,0.00,,,0.00,Rainwise IP-100,2013-07-07 13:17:00,
2013-07-07 07:22:00,60.0,44.0,26.85,ESE,112,0.0,0.0,55,0.00,,,0.00,Rainwise IP-100,2013-07-07 13:22:00,
2013-07-07 07:27:00,60.0,44.0,26.85,ESE,112,0.0,0.0,55,0.00,,,0.00,Rainwise IP-100,2013-07-07 13:27:00,
2013-07-07 07:32:00,61.0,44.0,26.85,North,360,0.0,0.0,54,0.00,,,0.00,Rainwise IP-100,2013-07-07 13:32:00,
2013-07-07 07:36:00,62.0,44.0,26.85,North,360,0.0,0.0,51,0.00,,,0.00,Rainwise IP-100,2013-07-07 13:36:00,
2013-07-07 07:38:00,62.0,44.0,26.85,North,360,0.0,0.0,51,0.00,,,0.00,Rainwise IP-100,2013-07-07 13:38:00,
2013-07-07 07:43:00,63.0,45.0,26.84,NW,315,2.0,3.0,52,0.00,,,0.00,Rainwise IP-100,2013-07-07 13:43:00,
2013-07-07 07:48:00,63.0,44.0,26.84,NNW,337,6.0,6.0,50,0.00,,,0.00,Rainwise IP-100,2013-07-07 13:48:00,
2013-07-07 07:53:00,63.0,43.0,26.85,NE,45,2.0,6.0,49,0.00,,,0.00,Rainwise IP-100,2013-07-07 13:53:00,
2013-07-07 07:58:00,63.0,43.0,26.85,NNW,337,1.0,6.0,49,0.00,,,0.00,Rainwise IP-100,2013-07-07 13:58:00,
2013-07-07 08:03:00,64.0,43.0,26.84,North,360,0.0,3.0,47,0.00,,,0.00,Rainwise IP-100,2013-07-07 14:03:00,
2013-07-07 08:08:00,64.0,43.0,26.84,East,90,0.0,3.0,47,0.00,,,0.00,Rainwise IP-100,2013-07-07 14:08:00,
2013-07-07 08:13:00,65.0,44.0,26.84,NW,315,1.0,6.0,47,0.00,,,0.00,Rainwise IP-100,2013-07-07 14:13:00,
2013-07-07 08:18:00,65.0,44.0,26.84,NNE,22,3.0,5.0,46,0.00,,,0.00,Rainwise IP-100,2013-07-07 14:18:00,
2013-07-07 08:23:00,65.0,43.0,26.84,WSW,247,1.0,4.0,45,0.00,,,0.00,Rainwise IP-100,2013-07-07 14:23:00,
2013-07-07 08:28:00,65.0,44.0,26.84,NE,45,4.0,6.0,46,0.00,,,0.00,Rainwise IP-100,2013-07-07 14:28:00,
2013-07-07 08:33:00,65.0,44.0,26.85,NW,315,0.0,5.0,46,0.00,,,0.00,Rainwise IP-100,2013-07-07 14:33:00,
2013-07-07 08:38:00,66.0,44.0,26.85,North,360,3.0,4.0,45,0.00,,,0.00,Rainwise IP-100,2013-07-07 14:38:00,
2013-07-07 08:43:00,66.0,43.0,26.84,SSE,157,3.0,4.0,44,0.00,,,0.00,Rainwise IP-100,2013-07-07 14:43:00,
2013-07-07 08:48:00,67.0,44.0,26.84,WSW,247,2.0,4.0,44,0.00,,,0.00,Rainwise IP-100,2013-07-07 14:48:00,
2013-07-07 08:53:00,67.0,44.0,26.84,West,270,1.0,6.0,44,0.00,,,0.00,Rainwise IP-100,2013-07-07 14:53:00,
2013-07-07 08:58:00,67.0,44.0,26.84,WNW,292,2.0,5.0,43,0.00,,,0.00,Rainwise IP-100,2013-07-07 14:58:00,
2013-07-07 09:03:00,68.0,45.0,26.83,North,360,3.0,5.0,43,0.00,,,0.00,Rainwise IP-100,2013-07-07 15:03:00,
2013-07-07 09:08:00,69.0,45.0,26.83,North,360,2.0,5.0,42,0.00,,,0.00,Rainwise IP-100,2013-07-07 15:08:00,
2013-07-07 09:13:00,69.0,44.0,26.83,WNW,292,2.0,6.0,41,0.00,,,0.00,Rainwise IP-100,2013-07-07 15:13:00,
2013-07-07 09:18:00,67.0,44.0,26.83,NW,315,3.0,6.0,43,0.00,,,0.00,Rainwise IP-100,2013-07-07 15:18:00,
2013-07-07 09:23:00,68.0,45.0,26.84,WNW,292,2.0,7.0,43,0.00,,,0.00,Rainwise IP-100,2013-07-07 15:23:00,
2013-07-07 09:28:00,69.0,44.0,26.84,SW,225,0.0,4.0,41,0.00,,,0.00,Rainwise IP-100,2013-07-07 15:28:00,
2013-07-07 09:33:00,70.0,45.0,26.82,South,180,1.0,5.0,40,0.00,,,0.00,Rainwise IP-100,2013-07-07 15:33:00,
2013-07-07 09:38:00,71.0,43.0,26.82,NNW,337,5.0,6.0,37,0.00,,,0.00,Rainwise IP-100,2013-07-07 15:38:00,
2013-07-07 09:43:00,71.0,45.0,26.82,WNW,292,1.0,7.0,39,0.00,,,0.00,Rainwise IP-100,2013-07-07 15:43:00,
2013-07-07 09:48:00,72.0,45.0,26.82,North,360,2.0,6.0,38,0.00,,,0.00,Rainwise IP-100,2013-07-07 15:48:00,
2013-07-07 09:53:00,71.0,44.0,26.81,West,270,2.0,6.0,38,0.00,,,0.00,Rainwise IP-100,2013-07-07 15:53:00,
2013-07-07 09:58:00,71.0,44.0,26.81,NE,45,0.0,6.0,38,0.00,,,0.00,Rainwise IP-100,2013-07-07 15:58:00,
2013-07-07 10:03:00,72.0,44.0,26.81,SW,225,3.0,5.0,37,0.00,,,0.00,Rainwise IP-100,2013-07-07 16:03:00,
2013-07-07 10:08:00,72.0,45.0,26.81,North,360,0.0,5.0,38,0.00,,,0.00,Rainwise IP-100,2013-07-07 16:08:00,
2013-07-07 10:13:00,73.0,44.0,26.81,ENE,67,4.0,6.0,35,0.00,,,0.00,Rainwise IP-100,2013-07-07 16:13:00,
2013-07-07 10:18:00,72.0,43.0,26.81,NW,315,5.0,6.0,36,0.00,,,0.00,Rainwise IP-100,2013-07-07 16:18:00,
2013-07-07 10:23:00,73.0,45.0,26.81,NW,315,4.0,7.0,36,0.00,,,0.00,Rainwise IP-100,2013-07-07 16:23:00,
2013-07-07 10:28:00,73.0,43.0,26.81,North,360,0.0,6.0,34,0.00,,,0.00,Rainwise IP-100,2013-07-07 16:28:00,
2013-07-07 10:33:00,72.0,44.0,26.81,WNW,292,4.0,6.0,37,0.00,,,0.00,Rainwise IP-100,2013-07-07 16:33:00,
2013-07-07 10:38:00,73.0,45.0,26.81,West,270,3.0,6.0,36,0.00,,,0.00,Rainwise IP-100,2013-07-07 16:38:00,
2013-07-07 10:43:00,74.0,45.0,26.80,West,270,3.0,6.0,35,0.00,,,0.00,Rainwise IP-100,2013-07-07 16:43:00,
2013-07-07 10:48:00,74.0,46.0,26.80,WSW,247,1.0,6.0,36,0.00,,,0.00,Rainwise IP-100,2013-07-07 16:48:00,
2013-07-07 10:53:00,75.0,44.0,26.79,NNW,337,5.0,6.0,33,0.00,,,0.00,Rainwise IP-100,2013-07-07 16:53:00,
2013-07-07 10:58:00,75.0,44.0,26.79,NNW,337,2.0,6.0,33,0.00,,,0.00,Rainwise IP-100,2013-07-07 16:58:00,
2013-07-07 11:03:00,76.0,43.0,26.79,NNW,337,0.0,6.0,31,0.00,,,0.00,Rainwise IP-100,2013-07-07 17:03:00,
2013-07-07 11:08:00,77.0,43.0,26.79,ENE,67,3.0,6.0,30,0.00,,,0.00,Rainwise IP-100,2013-07-07 17:08:00,
2013-07-07 11:13:00,76.0,42.0,26.79,ENE,67,5.0,5.0,30,0.00,,,0.00,Rainwise IP-100,2013-07-07 17:13:00,
2013-07-07 11:18:00,76.0,44.0,26.79,SSE,157,3.0,5.0,32,0.00,,,0.00,Rainwise IP-100,2013-07-07 17:18:00,
2013-07-07 11:23:00,76.0,44.0,26.79,ESE,112,3.0,6.0,32,0.00,,,0.00,Rainwise IP-100,2013-07-07 17:23:00,
2013-07-07 11:28:00,75.0,43.0,26.79,SE,135,4.0,7.0,32,0.00,,,0.00,Rainwise IP-100,2013-07-07 17:28:00,
2013-07-07 11:33:00,76.0,44.0,26.79,SW,225,5.0,6.0,32,0.00,,,0.00,Rainwise IP-100,2013-07-07 17:33:00,
2013-07-07 11:38:00,77.0,45.0,26.79,SSW,202,0.0,7.0,32,0.00,,,0.00,Rainwise IP-100,2013-07-07 17:38:00,
2013-07-07 11:43:00,78.0,44.0,26.78,SSW,202,2.0,5.0,30,0.00,,,0.00,Rainwise IP-100,2013-07-07 17:43:00,
2013-07-07 11:48:00,78.0,44.0,26.78,WNW,292,4.0,6.0,30,0.00,,,0.00,Rainwise IP-100,2013-07-07 17:48:00,
2013-07-07 11:53:00,78.0,44.0,26.78,SW,225,2.0,7.0,30,0.00,,,0.00,Rainwise IP-100,2013-07-07 17:53:00,
2013-07-07 11:58:00,78.0,45.0,26.78,WNW,292,3.0,8.0,31,0.00,,,0.00,Rainwise IP-100,2013-07-07 17:58:00,
2013-07-07 12:03:00,78.0,44.0,26.79,SW,225,0.0,7.0,30,0.00,,,0.00,Rainwise IP-100,2013-07-07 18:03:00,
2013-07-07 12:08:00,78.0,44.0,26.79,SSE,157,1.0,6.0,30,0.00,,,0.00,Rainwise IP-100,2013-07-07 18:08:00,
2013-07-07 12:13:00,79.0,44.0,26.77,SE,135,5.0,7.0,29,0.00,,,0.00,Rainwise IP-100,2013-07-07 18:13:00,
2013-07-07 12:18:00,79.0,44.0,26.77,ESE,112,3.0,7.0,29,0.00,,,0.00,Rainwise IP-100,2013-07-07 18:18:00,
2013-07-07 12:23:00,80.0,46.0,26.76,SSW,202,0.0,6.0,30,0.00,,,0.00,Rainwise IP-100,2013-07-07 18:23:00,
2013-07-07 12:28:00,80.0,45.0,26.76,SSW,202,3.0,6.0,29,0.00,,,0.00,Rainwise IP-100,2013-07-07 18:28:00,
2013-07-07 12:33:00,81.0,43.0,26.75,NNW,337,7.0,7.0,26,0.00,,,0.00,Rainwise IP-100,2013-07-07 18:33:00,
2013-07-07 12:38:00,81.0,42.0,26.75,WSW,247,0.0,7.0,25,0.00,,,0.00,Rainwise IP-100,2013-07-07 18:38:00,
2013-07-07 12:43:00,82.0,43.0,26.74,South,180,2.0,3.0,25,0.00,,,0.00,Rainwise IP-100,2013-07-07 18:43:00,
2013-07-07 12:48:00,82.0,41.0,26.74,NW,315,3.0,7.0,24,0.00,,,0.00,Rainwise IP-100,2013-07-07 18:48:00,
2013-07-07 12:53:00,82.0,41.0,26.73,ENE,67,4.0,7.0,24,0.00,,,0.00,Rainwise IP-100,2013-07-07 18:53:00,
2013-07-07 12:58:00,82.0,43.0,26.73,NW,315,6.0,9.0,25,0.00,,,0.00,Rainwise IP-100,2013-07-07 18:58:00,
2013-07-07 13:03:00,81.0,44.0,26.73,West,270,6.0,11.0,27,0.00,,,0.00,Rainwise IP-100,2013-07-07 19:03:00,
2013-07-07 13:08:00,81.0,44.0,26.73,ESE,112,0.0,11.0,27,0.00,,,0.00,Rainwise IP-100,2013-07-07 19:08:00,
2013-07-07 13:13:00,81.0,44.0,26.74,West,270,7.0,10.0,27,0.00,,,0.00,Rainwise IP-100,2013-07-07 19:13:00,
2013-07-07 13:18:00,81.0,44.0,26.74,NNE,22,6.0,11.0,27,0.00,,,0.00,Rainwise IP-100,2013-07-07 19:18:00,
2013-07-07 13:23:00,82.0,43.0,26.73,NE,45,6.0,8.0,25,0.00,,,0.00,Rainwise IP-100,2013-07-07 19:23:00,
2013-07-07 13:28:00,82.0,41.0,26.73,North,360,0.0,10.0,24,0.00,,,0.00,Rainwise IP-100,2013-07-07 19:28:00,
2013-07-07 13:33:00,82.0,41.0,26.73,West,270,4.0,8.0,24,0.00,,,0.00,Rainwise IP-100,2013-07-07 19:33:00,
2013-07-07 13:38:00,83.0,44.0,26.73,SSE,157,3.0,7.0,25,0.00,,,0.00,Rainwise IP-100,2013-07-07 19:38:00,
2013-07-07 13:43:00,84.0,45.0,26.72,SSW,202,1.0,6.0,25,0.00,,,0.00,Rainwise IP-100,2013-07-07 19:43:00,
2013-07-07 13:48:00,84.0,42.0,26.72,SE,135,6.0,10.0,23,0.00,,,0.00,Rainwise IP-100,2013-07-07 19:48:00,
2013-07-07 13:53:00,84.0,43.0,26.72,WNW,292,6.0,10.0,24,0.00,,,0.00,Rainwise IP-100,2013-07-07 19:53:00,
2013-07-07 13:58:00,83.0,40.0,26.72,West,270,12.0,12.0,22,0.00,,,0.00,Rainwise IP-100,2013-07-07 19:58:00,
2013-07-07 14:03:00,84.0,42.0,26.75,NNW,337,6.0,13.0,23,0.00,,,0.00,Rainwise IP-100,2013-07-07 20:03:00,
2013-07-07 14:08:00,83.0,41.0,26.75,West,270,9.0,9.0,23,0.00,,,0.00,Rainwise IP-100,2013-07-07 20:08:00,
2013-07-07 14:13:00,84.0,42.0,26.72,WSW,247,1.0,10.0,23,0.00,,,0.00,Rainwise IP-100,2013-07-07 20:13:00,
2013-07-07 14:18:00,85.0,39.0,26.72,West,270,7.0,9.0,20,0.00,,,0.00,Rainwise IP-100,2013-07-07 20:18:00,
2013-07-07 14:23:00,85.0,42.0,26.71,NW,315,3.0,12.0,22,0.00,,,0.00,Rainwise IP-100,2013-07-07 20:23:00,
2013-07-07 14:28:00,86.0,41.0,26.71,WNW,292,3.0,10.0,21,0.00,,,0.00,Rainwise IP-100,2013-07-07 20:28:00,
2013-07-07 14:33:00,85.0,42.0,26.71,NW,315,6.0,12.0,22,0.00,,,0.00,Rainwise IP-100,2013-07-07 20:33:00,
2013-07-07 14:38:00,85.0,40.0,26.71,NNW,337,12.0,12.0,21,0.00,,,0.00,Rainwise IP-100,2013-07-07 20:38:00,
2013-07-07 14:43:00,85.0,39.0,26.71,West,270,8.0,13.0,20,0.00,,,0.00,Rainwise IP-100,2013-07-07 20:43:00,
2013-07-07 14:48:00,84.0,40.0,26.71,NW,315,5.0,16.0,21,0.00,,,0.00,Rainwise IP-100,2013-07-07 20:48:00,
2013-07-07 14:53:00,85.0,40.0,26.71,North,360,7.0,12.0,21,0.00,,,0.00,Rainwise IP-100,2013-07-07 20:53:00,
2013-07-07 14:58:00,85.0,42.0,26.71,North,360,7.0,10.0,22,0.00,,,0.00,Rainwise IP-100,2013-07-07 20:58:00,
2013-07-07 15:03:00,86.0,40.0,26.69,West,270,6.0,7.0,20,0.00,,,0.00,Rainwise IP-100,2013-07-07 21:03:00,
2013-07-07 15:08:00,86.0,41.0,26.69,NW,315,5.0,12.0,21,0.00,,,0.00,Rainwise IP-100,2013-07-07 21:08:00,
2013-07-07 15:13:00,87.0,41.0,26.68,North,360,8.0,8.0,20,0.00,,,0.00,Rainwise IP-100,2013-07-07 21:13:00,
2013-07-07 15:18:00,86.0,40.0,26.68,WNW,292,7.0,9.0,20,0.00,,,0.00,Rainwise IP-100,2013-07-07 21:18:00,
2013-07-07 15:23:00,85.0,40.0,26.70,NNW,337,8.0,10.0,21,0.00,,,0.00,Rainwise IP-100,2013-07-07 21:23:00,
2013-07-07 15:28:00,86.0,41.0,26.70,West,270,6.0,9.0,21,0.00,,,0.00,Rainwise IP-100,2013-07-07 21:28:00,
2013-07-07 15:33:00,87.0,42.0,26.69,WSW,247,6.0,8.0,21,0.00,,,0.00,Rainwise IP-100,2013-07-07 21:33:00,
2013-07-07 15:38:00,88.0,42.0,26.69,NNW,337,5.0,6.0,20,0.00,,,0.00,Rainwise IP-100,2013-07-07 21:38:00,
2013-07-07 15:43:00,88.0,42.0,26.68,South,180,6.0,7.0,20,0.00,,,0.00,Rainwise IP-100,2013-07-07 21:43:00,
2013-07-07 15:48:00,87.0,40.0,26.68,West,270,6.0,9.0,19,0.00,,,0.00,Rainwise IP-100,2013-07-07 21:48:00,
2013-07-07 15:53:00,88.0,40.0,26.68,SSW,202,1.0,8.0,19,0.00,,,0.00,Rainwise IP-100,2013-07-07 21:53:00,
2013-07-07 15:58:00,87.0,41.0,26.68,South,180,8.0,8.0,20,0.00,,,0.00,Rainwise IP-100,2013-07-07 21:58:00,
2013-07-07 16:03:00,86.0,41.0,26.69,SE,135,7.0,9.0,21,0.00,,,0.00,Rainwise IP-100,2013-07-07 22:03:00,
2013-07-07 16:08:00,87.0,41.0,26.69,SSW,202,0.0,7.0,20,0.00,,,0.00,Rainwise IP-100,2013-07-07 22:08:00,
2013-07-07 16:13:00,88.0,42.0,26.67,WSW,247,0.0,7.0,20,0.00,,,0.00,Rainwise IP-100,2013-07-07 22:13:00,
2013-07-07 16:18:00,88.0,40.0,26.67,WNW,292,4.0,6.0,19,0.00,,,0.00,Rainwise IP-100,2013-07-07 22:18:00,
2013-07-07 16:23:00,87.0,41.0,26.68,WNW,292,7.0,9.0,20,0.00,,,0.00,Rainwise IP-100,2013-07-07 22:23:00,
2013-07-07 16:28:00,86.0,41.0,26.68,WNW,292,2.0,8.0,21,0.00,,,0.00,Rainwise IP-100,2013-07-07 22:28:00,
2013-07-07 16:33:00,87.0,42.0,26.68,WSW,247,7.0,9.0,21,0.00,,,0.00,Rainwise IP-100,2013-07-07 22:33:00,
2013-07-07 16:38:00,87.0,41.0,26.68,North,360,4.0,8.0,20,0.00,,,0.00,Rainwise IP-100,2013-07-07 22:38:00,
2013-07-07 16:43:00,88.0,42.0,26.68,WSW,247,3.0,10.0,20,0.00,,,0.00,Rainwise IP-100,2013-07-07 22:43:00,
2013-07-07 16:48:00,88.0,40.0,26.68,NNW,337,0.0,8.0,19,0.00,,,0.00,Rainwise IP-100,2013-07-07 22:48:00,
2013-07-07 16:53:00,89.0,40.0,26.67,NNW,337,0.0,10.0,18,0.00,,,0.00,Rainwise IP-100,2013-07-07 22:53:00,
2013-07-07 16:58:00,90.0,41.0,26.67,WNW,292,5.0,7.0,18,0.00,,,0.00,Rainwise IP-100,2013-07-07 22:58:00,
2013-07-07 17:03:00,90.0,41.0,26.67,NNW,337,6.0,9.0,18,0.00,,,0.00,Rainwise IP-100,2013-07-07 23:03:00,
2013-07-07 17:08:00,89.0,40.0,26.66,North,360,6.0,9.0,18,0.00,,,0.00,Rainwise IP-100,2013-07-07 23:08:00,
2013-07-07 17:13:00,88.0,40.0,26.67,West,270,3.0,8.0,19,0.00,,,0.00,Rainwise IP-100,2013-07-07 23:13:00,
2013-07-07 17:18:00,88.0,40.0,26.67,West,270,2.0,7.0,19,0.00,,,0.00,Rainwise IP-100,2013-07-07 23:18:00,
2013-07-07 17:23:00,88.0,42.0,26.66,WNW,292,6.0,8.0,20,0.00,,,0.00,Rainwise IP-100,2013-07-07 23:23:00,
2013-07-07 17:28:00,88.0,39.0,26.66,NNW,337,2.0,10.0,18,0.00,,,0.00,Rainwise IP-100,2013-07-07 23:28:00,
2013-07-07 17:33:00,87.0,40.0,26.67,NNW,337,4.0,11.0,19,0.00,,,0.00,Rainwise IP-100,2013-07-07 23:33:00,
2013-07-07 17:38:00,88.0,39.0,26.67,North,360,2.0,11.0,18,0.00,,,0.00,Rainwise IP-100,2013-07-07 23:38:00,
2013-07-07 17:43:00,89.0,40.0,26.65,NW,315,6.0,6.0,18,0.00,,,0.00,Rainwise IP-100,2013-07-07 23:43:00,
2013-07-07 17:48:00,89.0,40.0,26.65,WNW,292,6.0,7.0,18,0.00,,,0.00,Rainwise IP-100,2013-07-07 23:48:00,
2013-07-07 17:53:00,88.0,40.0,26.67,WNW,292,2.0,10.0,19,0.00,,,0.00,Rainwise IP-100,2013-07-07 23:53:00,
2013-07-07 17:58:00,88.0,40.0,26.67,SSW,202,2.0,7.0,19,0.00,,,0.00,Rainwise IP-100,2013-07-07 23:58:00,
2013-07-07 18:03:00,88.0,40.0,26.65,North,360,6.0,13.0,19,0.00,,,0.00,Rainwise IP-100,2013-07-08 00:03:00,
2013-07-07 18:08:00,88.0,40.0,26.65,WNW,292,2.0,11.0,19,0.00,,,0.00,Rainwise IP-100,2013-07-08 00:08:00,
2013-07-07 18:13:00,87.0,40.0,26.66,SW,225,6.0,12.0,19,0.00,,,0.00,Rainwise IP-100,2013-07-08 00:13:00,
2013-07-07 18:18:00,86.0,40.0,26.66,NE,45,5.0,12.0,20,0.00,,,0.00,Rainwise IP-100,2013-07-08 00:18:00,
2013-07-07 18:23:00,87.0,40.0,26.65,NNW,337,9.0,9.0,19,0.00,,,0.00,Rainwise IP-100,2013-07-08 00:23:00,
2013-07-07 18:28:00,87.0,40.0,26.65,NW,315,4.0,12.0,19,0.00,,,0.00,Rainwise IP-100,2013-07-08 00:28:00,
2013-07-07 18:33:00,88.0,39.0,26.66,NW,315,2.0,10.0,18,0.00,,,0.00,Rainwise IP-100,2013-07-08 00:33:00,
2013-07-07 18:38:00,88.0,39.0,26.66,NNW,337,3.0,9.0,18,0.00,,,0.00,Rainwise IP-100,2013-07-08 00:38:00,
2013-07-07 18:43:00,88.0,39.0,26.65,NNW,337,6.0,10.0,18,0.00,,,0.00,Rainwise IP-100,2013-07-08 00:43:00,
2013-07-07 18:48:00,88.0,40.0,26.65,West,270,4.0,9.0,19,0.00,,,0.00,Rainwise IP-100,2013-07-08 00:48:00,
2013-07-07 18:53:00,87.0,40.0,26.65,WNW,292,6.0,10.0,19,0.00,,,0.00,Rainwise IP-100,2013-07-08 00:53:00,
2013-07-07 18:58:00,87.0,40.0,26.65,NW,315,6.0,8.0,19,0.00,,,0.00,Rainwise IP-100,2013-07-08 00:58:00,
2013-07-07 19:03:00,87.0,41.0,26.65,NW,315,7.0,9.0,20,0.00,,,0.00,Rainwise IP-100,2013-07-08 01:03:00,
2013-07-07 19:08:00,87.0,40.0,26.65,WNW,292,6.0,9.0,19,0.00,,,0.00,Rainwise IP-100,2013-07-08 01:08:00,
2013-07-07 19:13:00,87.0,41.0,26.65,West,270,2.0,9.0,20,0.00,,,0.00,Rainwise IP-100,2013-07-08 01:13:00,
2013-07-07 19:18:00,87.0,40.0,26.65,North,360,4.0,9.0,19,0.00,,,0.00,Rainwise IP-100,2013-07-08 01:18:00,
2013-07-07 19:23:00,86.0,38.0,26.65,NW,315,7.0,10.0,18,0.00,,,0.00,Rainwise IP-100,2013-07-08 01:23:00,
2013-07-07 19:28:00,86.0,39.0,26.65,NW,315,6.0,9.0,19,0.00,,,0.00,Rainwise IP-100,2013-07-08 01:28:00,
2013-07-07 19:33:00,86.0,40.0,26.65,WNW,292,0.0,7.0,20,0.00,,,0.00,Rainwise IP-100,2013-07-08 01:33:00,
2013-07-07 19:38:00,87.0,41.0,26.65,NNW,337,7.0,7.0,20,0.00,,,0.00,Rainwise IP-100,2013-07-08 01:38:00,
2013-07-07 19:43:00,86.0,39.0,26.67,West,270,8.0,9.0,19,0.00,,,0.00,Rainwise IP-100,2013-07-08 01:43:00,
2013-07-07 19:48:00,86.0,40.0,26.67,NW,315,6.0,9.0,20,0.00,,,0.00,Rainwise IP-100,2013-07-08 01:48:00,
2013-07-07 19:53:00,86.0,40.0,26.65,NNW,337,4.0,8.0,20,0.00,,,0.00,Rainwise IP-100,2013-07-08 01:53:00,
2013-07-07 19:58:00,85.0,39.0,26.65,NW,315,7.0,9.0,20,0.00,,,0.00,Rainwise IP-100,2013-07-08 01:58:00,
2013-07-07 20:03:00,85.0,39.0,26.66,North,360,6.0,9.0,20,0.00,,,0.00,Rainwise IP-100,2013-07-08 02:03:00,
2013-07-07 20:08:00,85.0,42.0,26.66,West,270,3.0,9.0,22,0.00,,,0.00,Rainwise IP-100,2013-07-08 02:08:00,
2013-07-07 20:13:00,85.0,42.0,26.66,WNW,292,3.0,8.0,22,0.00,,,0.00,Rainwise IP-100,2013-07-08 02:13:00,
2013-07-07 20:18:00,85.0,39.0,26.66,NW,315,4.0,7.0,20,0.00,,,0.00,Rainwise IP-100,2013-07-08 02:18:00,
2013-07-07 20:23:00,85.0,42.0,26.67,WNW,292,2.0,6.0,22,0.00,,,0.00,Rainwise IP-100,2013-07-08 02:23:00,
2013-07-07 20:28:00,84.0,41.0,26.67,NW,315,5.0,7.0,22,0.00,,,0.00,Rainwise IP-100,2013-07-08 02:28:00,
2013-07-07 20:33:00,84.0,42.0,26.67,WSW,247,2.0,6.0,23,0.00,,,0.00,Rainwise IP-100,2013-07-08 02:33:00,
2013-07-07 20:38:00,84.0,43.0,26.67,WNW,292,1.0,6.0,24,0.00,,,0.00,Rainwise IP-100,2013-07-08 02:38:00,
2013-07-07 20:43:00,83.0,42.0,26.69,West,270,4.0,6.0,24,0.00,,,0.00,Rainwise IP-100,2013-07-08 02:43:00,
2013-07-07 20:48:00,83.0,44.0,26.69,WNW,292,2.0,7.0,25,0.00,,,0.00,Rainwise IP-100,2013-07-08 02:48:00,
2013-07-07 20:53:00,82.0,44.0,26.69,NW,315,0.0,3.0,26,0.00,,,0.00,Rainwise IP-100,2013-07-08 02:53:00,
2013-07-07 20:58:00,81.0,44.0,26.69,North,360,6.0,6.0,27,0.00,,,0.00,Rainwise IP-100,2013-07-08 02:58:00,
2013-07-07 21:03:00,80.0,43.0,26.69,WNW,292,2.0,7.0,27,0.00,,,0.00,Rainwise IP-100,2013-07-08 03:03:00,
2013-07-07 21:08:00,80.0,45.0,26.69,WNW,292,2.0,3.0,29,0.00,,,0.00,Rainwise IP-100,2013-07-08 03:08:00,
2013-07-07 21:13:00,79.0,44.0,26.69,NW,315,1.0,6.0,29,0.00,,,0.00,Rainwise IP-100,2013-07-08 03:13:00,
2013-07-07 21:18:00,79.0,45.0,26.69,WSW,247,1.0,3.0,30,0.00,,,0.00,Rainwise IP-100,2013-07-08 03:18:00,
2013-07-07 21:23:00,78.0,46.0,26.70,South,180,0.0,3.0,32,0.00,,,0.00,Rainwise IP-100,2013-07-08 03:23:00,
2013-07-07 21:28:00,77.0,45.0,26.70,SSW,202,2.0,2.0,32,0.00,,,0.00,Rainwise IP-100,2013-07-08 03:28:00,
2013-07-07 21:33:00,76.0,46.0,26.71,South,180,0.0,4.0,34,0.00,,,0.00,Rainwise IP-100,2013-07-08 03:33:00,
2013-07-07 21:38:00,76.0,46.0,26.71,South,180,0.0,1.0,34,0.00,,,0.00,Rainwise IP-100,2013-07-08 03:38:00,
2013-07-07 21:43:00,75.0,47.0,26.73,South,180,2.0,3.0,36,0.00,,,0.00,Rainwise IP-100,2013-07-08 03:43:00,
2013-07-07 21:48:00,74.0,46.0,26.73,South,180,1.0,4.0,37,0.00,,,0.00,Rainwise IP-100,2013-07-08 03:48:00,
2013-07-07 21:53:00,74.0,46.0,26.73,South,180,0.0,2.0,37,0.00,,,0.00,Rainwise IP-100,2013-07-08 03:53:00,
2013-07-07 21:58:00,73.0,45.0,26.73,South,180,0.0,2.0,37,0.00,,,0.00,Rainwise IP-100,2013-07-08 03:58:00,
2013-07-07 22:01:00,73.0,47.0,26.73,South,180,0.0,0.0,39,0.00,,,0.00,Rainwise IP-100,2013-07-08 04:01:00,
2013-07-07 22:06:00,73.0,47.0,26.74,South,180,0.0,0.0,39,0.00,,,0.00,Rainwise IP-100,2013-07-08 04:06:00,
2013-07-07 22:11:00,72.0,46.0,26.74,South,180,0.0,0.0,39,0.00,,,0.00,Rainwise IP-100,2013-07-08 04:11:00,
2013-07-07 22:16:00,72.0,47.0,26.75,South,180,0.0,0.0,40,0.00,,,0.00,Rainwise IP-100,2013-07-08 04:16:00,
2013-07-07 22:21:00,72.0,47.0,26.75,South,180,1.0,3.0,41,0.00,,,0.00,Rainwise IP-100,2013-07-08 04:21:00,
2013-07-07 22:26:00,72.0,46.0,26.75,SSE,157,1.0,4.0,39,0.00,,,0.00,Rainwise IP-100,2013-07-08 04:26:00,
2013-07-07 22:31:00,72.0,47.0,26.75,SSE,157,2.0,2.0,40,0.00,,,0.00,Rainwise IP-100,2013-07-08 04:31:00,
2013-07-07 22:36:00,72.0,46.0,26.75,SSE,157,1.0,4.0,39,0.00,,,0.00,Rainwise IP-100,2013-07-08 04:36:00,
2013-07-07 22:41:00,72.0,47.0,26.75,South,180,4.0,6.0,41,0.00,,,0.00,Rainwise IP-100,2013-07-08 04:41:00,
2013-07-07 22:46:00,72.0,47.0,26.76,SSE,157,2.0,5.0,40,0.00,,,0.00,Rainwise IP-100,2013-07-08 04:46:00,
2013-07-07 22:51:00,72.0,47.0,26.76,SSE,157,3.0,4.0,41,0.00,,,0.00,Rainwise IP-100,2013-07-08 04:51:00,
2013-07-07 22:56:00,71.0,46.0,26.75,SSE,157,4.0,4.0,41,0.00,,,0.00,Rainwise IP-100,2013-07-08 04:56:00,
2013-07-07 23:01:00,71.0,46.0,26.75,SSE,157,0.0,4.0,41,0.00,,,0.00,Rainwise IP-100,2013-07-08 05:01:00,
2013-07-07 23:06:00,71.0,47.0,26.76,SSE,157,0.0,0.0,42,0.00,,,0.00,Rainwise IP-100,2013-07-08 05:06:00,
2013-07-07 23:11:00,70.0,47.0,26.76,SSE,157,0.0,3.0,43,0.00,,,0.00,Rainwise IP-100,2013-07-08 05:11:00,
2013-07-07 23:16:00,70.0,47.5,26.77,SSE,157,0.0,1.0,44,0.00,,,0.00,Rainwise IP-100,2013-07-08 05:16:00,
2013-07-07 23:21:00,69.0,46.0,26.77,SSE,157,0.0,0.0,44,0.00,,,0.00,Rainwise IP-100,2013-07-08 05:21:00,
2013-07-07 23:26:00,69.0,47.5,26.77,SSE,157,0.0,0.0,46,0.00,,,0.00,Rainwise IP-100,2013-07-08 05:26:00,
2013-07-07 23:31:00,68.0,46.0,26.77,SSE,157,0.0,0.0,45,0.00,,,0.00,Rainwise IP-100,2013-07-08 05:31:00,
2013-07-07 23:36:00,69.0,47.0,26.77,SSE,157,2.0,4.0,45,0.00,,,0.00,Rainwise IP-100,2013-07-08 05:36:00,
2013-07-07 23:41:00,69.0,45.0,26.77,SE,135,1.0,6.0,42,0.00,,,0.00,Rainwise IP-100,2013-07-08 05:41:00,
2013-07-07 23:46:00,69.0,45.0,26.77,NE,45,0.0,5.0,42,0.00,,,0.00,Rainwise IP-100,2013-07-08 05:46:00,
2013-07-07 23:51:00,69.0,45.0,26.77,ESE,112,2.0,6.0,42,0.00,,,0.00,Rainwise IP-100,2013-07-08 05:51:00,
2013-07-07 23:56:00,69.0,45.0,26.77,ENE,67,0.0,6.0,42,0.00,,,0.00,Rainwise IP-100,2013-07-08 05:56:00,